{"data":{"norad_id":57348,"epoch":"2026-09-20T14:26:54.124512Z","epoch_age_seconds":115370,"freshness":"FRESH","line1":"1 57348U 23099W   26263.60201533  .00000979  00000+0  45113-4 0  9991","line2":"2 57348  43.0014 228.4053 0000654 260.0392 100.0386 15.27572535175926","mean_motion":15.27572535,"eccentricity":6.54e-5,"inclination_deg":43.0014,"raan_deg":228.4053,"arg_perigee_deg":260.0392,"mean_anomaly_deg":100.0386,"bstar":4.5113e-5,"rev_number":17592,"period_min":94.267209380012,"perigee_km":482.62272599363,"apogee_km":483.52017205877,"semimajor_km":6861.2084490262,"source":"CELESTRAK","updated_at":"2026-09-21T09:00:33.599974Z"}}